Location: Dinan
(48.2349°N, 4.5481°W)
Time: 21:53:07
(UTC+00:00)

Daily predictions for brighter satellites

Satellite Brightness Start Highest point End
(mag) Time Altitude Azimuth Time Altitude Azimuth Time Altitude Azimuth
Meteor 2-10 Rocket 3.8 19:38:07 10° SSE 19:43:09 50° E 19:48:25 10° NNE
SL-8 R/B 3.8 19:38:43 10° W 19:43:34 83° SSW 19:48:25 10° ESE
BREEZE-M DEB (TANK) 3.7 19:40:53 10° SW 19:43:40 51° SE 19:49:57 10° ENE
Cosmos 2026 Rocket 4.3 19:42:45 10° N 19:48:34 45° ENE 19:54:23 10° SE
Cosmos 405 3.5 19:46:06 10° SSE 19:49:18 36° E 19:52:32 10° NNE
OBJECT-B 0.9 19:47:41 10° SSE 19:50:50 55° ENE 19:54:01 10° N
IRS-1A Rocket 4.5 19:46:02 10° SE 19:51:27 55° ENE 19:57:00 10° N
SL-27 R/B 4.0 19:49:34 10° SW 19:52:54 41° WNW 19:56:13 10° N
BREEZE-M DEB (TANK) 3.6 19:49:17 10° SW 19:53:02 77° SE 20:06:05 10° ENE
CZ-4 R/B 4.1 19:50:15 10° SSW 19:53:38 23° W 19:57:02 10° NW
NOSS 3-4 (A) 3.4 19:48:01 10° SW 19:53:53 89° SE 20:00:15 10° NE
NOSS 3-4 (C) 3.4 19:48:08 10° SW 19:54:00 88° SE 20:00:21 10° NE
Cosmos 1892 2.6 19:51:31 10° N 19:55:18 78° E 19:59:06 10° SSE
Cosmos 1606 Rocket 3.6 19:54:48 10° S 19:59:11 86° W 20:03:33 10° N
Cosmos 2322 Rocket 4.1 19:54:47 10° NW 19:59:40 30° WSW 20:04:32 10° SSW
Cosmos 2098 Rocket 4.4 19:52:41 10° N 19:59:42 73° E 20:07:08 10° SSE
Cosmos 2251 Rocket 4.2 19:56:50 10° SSE 20:01:35 33° ESE 20:06:21 10° NE
Cosmos 389 Rocket 4.3 20:00:14 11° ESE 20:02:05 15° E 20:04:08 10° NE
Cosmos 2333 Rocket 2.3 19:58:27 10° NNW 20:04:16 89° ENE 20:10:00 10° SSE
Cosmos 2297 Rocket 3.8 20:02:27 10° SE 20:05:18 14° E 20:08:11 10° ENE
BREEZE-M DEB (TANK) 1.8 20:03:25 10° W 20:06:11 65° N 20:08:17 11° E
Cosmos 1634 Rocket 4.2 20:00:33 10° SSE 20:06:35 51° E 20:12:36 10° NNE
ATLAS 2AS CENTAUR R/B 3.0 19:59:36 10° SSW 20:07:30 76° SE 20:15:16 10° NE
Cosmos 1825 2.4 20:04:21 10° N 20:08:03 49° ENE 20:11:43 10° SSE
NOSS 7 (H) 4.1 20:05:13 10° SW 20:08:38 76° SE 20:11:35 10° NE
SPOT 3 Rocket 4.2 20:03:52 10° SE 20:08:39 39° ENE 20:13:26 10° N
Helios 1A Rocket 4.4 20:05:41 10° SSW 20:09:30 38° W 20:13:22 10° NNW
Cosmos 1726 Rocket 3.6 20:05:17 10° S 20:09:40 85° W 20:14:03 10° N
ARIANE 5 R/B 4.4 20:09:20 10° E 20:11:58 17° ENE 20:14:44 10° NNE
Ariane Rocket 3.0 20:08:58 10° SSE 20:14:00 77° ENE 20:19:05 10° NNW
Cosmos 2322 3.9 20:09:31 10° NNW 20:15:11 74° WSW 20:20:49 10° SSE
Cosmos 2228 4.1 20:11:34 10° SSW 20:15:47 49° WNW 20:20:00 10° N
Cosmos 1408 2.6 20:12:33 10° NNW 20:16:07 77° W 20:19:39 10° S
Orbus 7S? 3.2 20:15:47 10° SSW 20:18:28 52° SE 20:23:10 10° ENE
CZ-4C R/B 3.4 20:14:53 10° WSW 20:19:50 45° NW 20:25:50 10° NE
RESURS DK-1 2.5 20:17:12 10° S 20:21:11 50° ESE 20:25:13 10° NE
Landsat 7 4.4 20:20:38 14° SE 20:24:15 40° ENE 20:28:42 10° N
NOSS 7 (E) 4.3 20:23:29 10° SSW 20:27:17 71° SE 20:30:26 10° NE
Meteor 2-1 Rocket 4.4 20:22:18 10° S 20:28:01 61° E 20:33:52 10° NNE
Cosmos 2058 2.9 20:24:57 10° N 20:29:10 82° E 20:33:19 10° SSE
Cosmos 482 Debris 3.8 20:30:08 10° W 20:32:34 44° NNW 20:33:56 16° NE
SL-16 R/B 3.8 20:29:41 10° N 20:34:06 23° NE 20:37:53 12° E
USA 186 4.1 20:32:00 10° SSW 20:34:40 23° W 20:37:15 10° NW
Cosmos 2058 Rocket 3.2 20:31:28 10° SSW 20:35:49 74° W 20:40:12 10° N
Cosmos 1980 4.1 20:30:22 10° NNW 20:35:55 50° NE 20:39:44 20° SE
COSMOS 2487 3.4 20:32:46 10° SW 20:36:05 49° WNW 20:39:25 10° NNE
Cosmos 614 Rocket 4.2 20:31:18 10° S 20:36:10 46° ESE 20:41:03 10° NNE
Cosmos 1992 Rocket 4.4 20:31:36 10° NNW 20:36:47 65° WSW 20:41:55 10° S
BREEZE-M DEB (TANK) 3.7 20:33:20 10° WSW 20:37:18 89° SSE 20:51:50 10° ENE
Cosmos 2360 Rocket 4.2 20:36:01 10° NW 20:40:30 24° WSW 20:44:56 10° SSW
Cosmos 2151 3.8 20:39:27 10° N 20:43:27 35° ENE 20:45:17 24° ESE
IRIDIUM 104 4.5 20:40:01 13° SSE 20:44:36 54° E 20:49:42 10° NNE
COSMOS 2428 3.1 20:39:04 10° NNW 20:44:45 65° WSW 20:49:50 13° SSE
Meteor 2-3 Rocket 4.4 20:39:59 10° N 20:45:22 38° ENE 20:48:26 22° ESE
Cosmos 2344 3.4 20:38:23 10° SSW 20:45:49 74° SE 20:53:44 10° NE
Cosmos 1076 Rocket 3.5 20:42:59 10° N 20:47:21 68° ENE 20:50:07 22° SSE
FALCON 9 DEB 3.1 20:44:02 10° SW 20:47:23 57° SSE 20:49:44 18° ENE
ATLAS 3B R/B 2.9 20:40:34 10° NW 20:47:34 76° SW 20:53:12 18° SSE
Cosmos 192 4.4 20:44:33 10° NNW 20:49:31 66° ENE 20:52:27 24° SE
USA 215 3.3 20:45:38 19° ESE 20:50:32 81° NNE 20:57:06 10° NW
Cosmos 1812 Rocket 3.8 20:47:57 20° SSE 20:50:47 47° E 20:55:06 10° NNE
Resurs 01 Rocket 1.6 20:50:18 17° SSE 20:53:42 86° WSW 20:58:13 10° NNW
IRIDIUM 114 4.3 20:49:08 13° S 20:53:43 65° E 20:58:54 10° N
Cosmos 1818 3.5 20:48:19 10° SSW 20:53:43 74° SE 20:59:12 10° NE
Cosmos 1455 3.3 20:51:13 10° SSW 20:54:48 44° WNW 20:58:24 10° N
Cosmos 44 3.4 20:50:46 10° SW 20:55:53 86° SE 21:01:19 10° NE
Cosmos 407 Rocket 3.9 20:53:35 20° SSE 20:56:30 38° ESE 21:01:15 10° NE
ERS-1 Rocket 4.0 20:54:40 23° ESE 20:56:45 31° ENE 21:01:08 10° N
Cosmos 2219 Rocket 3.2 20:52:22 10° NW 20:57:44 44° WSW 21:02:59 10° S
NOSS 0 Rocket 4.0 20:52:38 10° NNW 20:58:54 84° WSW 21:03:07 22° SSE
Meteor 2-21 4.4 20:55:35 10° N 21:01:37 67° ENE 21:05:28 23° SSE
IRIDIUM 103 4.2 20:58:16 13° S 21:02:51 78° E 21:08:05 10° N
Cosmos 1633 2.7 20:59:44 10° N 21:03:17 55° ENE 21:04:10 42° SE
Cosmos 1356 3.7 21:00:39 10° NNW 21:04:04 65° W 21:05:42 28° S
CARTOSAT-1 4.2 21:04:22 31° ESE 21:05:43 41° ENE 21:09:47 10° N
IGS 5A 3.5 21:04:09 23° S 21:06:39 75° WSW 21:10:50 10° NNW
ATLAS 5 CENTAUR R/B 4.4 21:04:02 10° WNW 21:07:04 18° NNW 21:10:23 10° NNE
Lacrosse 5 rocket 3.4 21:05:12 10° WNW 21:08:45 26° N 21:12:27 10° NE
Cosmos 405 Rocket 3.3 21:06:08 10° NNW 21:10:05 56° W 21:12:30 21° SSW
Cosmos 909 Rocket 4.0 21:05:51 10° SW 21:12:11 89° ESE 21:18:43 10° NE
Cosmos 1809 Rocket 4.5 21:10:48 10° N 21:16:56 83° W 21:21:10 21° S
COSMOS 2455 4.1 21:18:15 22° E 21:18:15 22° E 21:21:45 10° ENE
SPOT 5 3.2 21:19:30 36° ESE 21:20:40 44° ENE 21:25:10 10° N
Cosmos 1140 Rocket 3.5 21:18:31 29° SSE 21:20:52 53° ESE 21:25:52 10° NNE
IRIDIUM 106 4.5 21:16:33 13° S 21:21:10 75° W 21:26:24 10° N
Spot 2 Rocket 3.4 21:21:43 35° SSE 21:23:52 76° ENE 21:28:57 10° NNW
Cosmos 2237 Rocket 2.2 21:19:12 10° NNW 21:24:52 81° WSW 21:27:26 34° SSE
CZ-2C R/B 3.6 21:21:28 10° NNE 21:25:57 84° WNW 21:28:54 21° SSW
Cosmos 2279 Rocket 4.3 21:20:43 10° SSW 21:26:52 68° WNW 21:33:04 10° N
Terra 2.4 21:28:59 36° E 21:29:56 40° ENE 21:34:23 10° N
Cosmos 389 Rocket 3.8 21:33:58 16° SW 21:36:22 39° WNW 21:39:45 10° N
Cosmos 2227 Rocket 2.2 21:38:45 35° S 21:41:04 60° ESE 21:46:39 10° NNE
SPOT 1/Viking Rocket 3.9 21:38:50 30° S 21:41:20 63° WSW 21:46:33 10° NNW
ARIANE 5 R/B 2.8 21:46:52 48° SSW 21:47:57 67° WSW 21:52:21 10° NNW
Cosmos 2297 Rocket 2.1 21:43:48 16° SSW 21:48:27 85° ESE 21:54:10 10° NNE
Cosmos 1190 Rocket 3.8 21:47:49 36° SSW 21:50:02 81° ESE 21:55:17 10° NNE
Cosmos 2219 3.0 21:47:37 23° SSW 21:51:13 82° ESE 21:56:52 10° NNE
Cosmos 2266 Rocket 4.1 21:44:55 10° NNW 21:51:18 73° W 21:54:23 32° S
H-2A R/B 4.1 21:50:21 10° NNE 21:53:41 43° ENE 21:53:41 43° ENE
ATLAS 2AS CENTAUR R/B 4.3 21:51:46 10° W 21:59:09 41° NNW 22:06:19 10° NE
Timation 2 Rocket 3.9 21:54:58 17° SSW 22:00:17 82° ESE 22:06:38 10° NNE
Genesis I 3.4 21:56:28 10° NW 22:00:14 70° W 22:00:14 70° W
Cosmos 1763 Rocket 3.8 21:57:30 10° NNW 22:02:27 49° ENE 22:02:58 47° E
BREEZE M DEB (TANK) 4.3 21:59:04 15° SW 22:02:44 59° SE 22:17:30 10° ENE
Cosmos 1862 4.4 21:59:08 10° N 22:02:04 34° NE 22:02:04 34° NE
Cosmos-2242 3.6 22:02:37 39° SW 22:03:53 54° WNW 22:08:08 10° N
Cosmos 1408 Rocket 3.9 22:02:16 10° N 22:06:07 52° NE 22:06:07 52° NE
Cosmos 676 Rocket 3.8 22:07:09 68° SE 22:07:28 70° ESE 22:12:39 10° NNE
CRYOSAT 2 4.3 22:10:15 65° E 22:10:23 65° E 22:15:16 10° N
SL-16 R/B 2.1 22:13:14 10° NNW 22:18:57 83° WSW 22:19:46 67° S
Cosmos 540 Rocket 4.1 22:16:58 10° N 22:21:50 41° ENE 22:22:04 40° ENE
Cosmos 1743 Rocket 4.5 22:17:55 10° N 22:21:17 39° NE 22:21:17 39° NE
Meteor 2-15 Rocket 4.3 22:22:07 61° SE 22:22:46 65° E 22:28:46 10° NNE
NOSS 3-1 (C) 4.2 22:18:21 10° NW 22:25:36 67° NE 22:28:42 41° ESE
Cosmos 1244 Rocket 4.4 22:19:24 10° N 22:25:50 83° E 22:27:02 61° SSE
SL-08 ROCKET BODY 4.4 22:21:09 10° N 22:27:13 64° ENE 22:27:52 60° ESE
Cosmos 2221 3.3 22:30:07 43° NNE 22:30:07 43° NNE 22:33:07 10° NNE
SL-08 R/B 4.4 22:24:48 10° N 22:30:58 68° E 22:31:43 62° ESE
USA 215 3.9 22:32:58 35° SSW 22:33:56 37° SW 22:39:56 10° WNW
Cosmos 44 Rocket 4.2 22:36:36 39° ENE 22:36:36 39° ENE 22:40:02 10° NE
ERS-1 Rocket 3.8 22:34:39 37° WSW 22:35:26 39° W 22:40:10 10° NNW
Aureole 1 Rocket 4.5 22:38:07 36° ENE 22:38:07 36° ENE 22:41:22 10° NE
Cosmos 1553 Rocket 3.8 22:39:11 66° ESE 22:39:28 67° E 22:45:31 10° NNE
Cosmos 1500 Rocket 4.1 22:37:14 10° N 22:40:50 54° NNE 22:40:50 54° NNE
Meteor 1-4 Rocket 4.4 22:44:18 29° NW 22:44:18 29° NW 22:46:32 10° N
Cosmos 1943 3.7 22:43:08 10° NNW 22:48:34 48° NE 22:48:59 47° ENE
Lacrosse 5 rocket 3.0 22:45:01 10° NW 22:48:54 31° NNE 22:49:47 28° NE
ALOS 2 4.2 22:49:56 27° NE 22:49:56 27° NE 22:52:55 10° N
Cosmos 1417 Rocket 4.4 22:49:46 68° ESE 22:50:05 69° E 22:56:20 10° NNE
BREEZE M DEB (TANK) 4.4 22:48:21 10° W 22:50:13 20° W 22:50:13 20° W
Cosmos 1850 Rocket 4.4 22:54:08 53° NE 22:54:08 53° NE 22:58:16 10° NNE
SPOT 5 4.5 22:58:43 23° W 22:58:59 23° W 23:02:45 10° NW
Meteor 2-2 Rocket 4.3 23:00:50 66° WSW 23:01:21 70° WNW 23:07:06 10° N
COSMOS 2455 2.9 23:01:18 56° WSW 23:02:32 74° NW 23:08:35 10° NNE
SeaSat 1 2.9 23:00:35 10° NNE 23:04:24 54° NE 23:04:24 54° NE
Terra 3.3 23:07:51 27° W 23:07:51 27° W 23:11:53 10° NW
Cosmos 2237 Rocket 4.4 23:05:25 10° WNW 23:07:58 13° W 23:09:16 12° WSW
Cosmos 2082 4.5 23:21:01 39° W 23:22:26 47° NW 23:27:53 10° NNE
Cosmos 2263 Rocket 2.7 23:24:26 51° NE 23:24:26 51° NE 23:28:41 10° NNE
Cosmos 2227 Rocket 4.0 23:20:40 10° WSW 23:25:31 29° NW 23:30:24 10° NNE
Cosmos 841 Rocket 4.1 23:27:25 10° NNW 23:31:35 51° WNW 23:31:35 51° WNW
USA 229 DEB 3.7 23:25:26 10° NW 23:32:46 85° SW 23:33:33 74° SSE
USA 229 3.7 23:25:32 10° NW 23:32:51 85° SW 23:33:40 74° SSE
Cosmos 1603 3.8 23:27:22 10° NNW 23:32:30 70° NW 23:32:30 70° NW
Cosmos 2297 Rocket 4.4 23:28:55 10° W 23:33:15 22° NW 23:37:37 10° N
Meteor 2-17 Rocket 4.4 23:27:41 10° N 23:33:43 81° NE 23:33:43 81° NE
USA 281 4.1 23:33:03 35° E 23:34:50 42° NE 23:40:57 10° NNW
Cosmos 1814 Rocket 4.5 23:35:18 10° NNW 23:39:37 57° NW 23:39:37 57° NW
Cosmos 1745 Rocket 4.3 23:34:53 10° NNW 23:41:02 55° W 23:41:13 55° W
Cosmos 1709 Rocket 3.9 23:40:41 10° N 23:46:44 80° WNW 23:46:44 80° WNW
NOSS 3-1 (A) 3.9 23:43:09 10° NW 23:50:37 76° SW 23:51:29 70° S
Meteor 1-25 Rocket 4.4 23:45:01 10° NNW 23:50:08 69° NW 23:50:08 69° NW
